Photometre #359[Standard_N] Warsaw_UW AOT

File : 20200925_359.hum

25/09/2020,05:26:45,TEMP=14.3,BA=5.60,STAT.A=5.0,ExtBa=13.20
25/09/2020,05:31:01,TEMP=14.5,BA=5.60,STAT.A=5.0,ExtBa=13.10
25/09/2020,05:35:59,TEMP=14.7,BA=5.60,STAT.A=5.0,ExtBa=13.20
25/09/2020,05:41:57,TEMP=14.8,BA=5.60,STAT.A=5.0,ExtBa=13.50
25/09/2020,05:49:10,TEMP=15.1,BA=5.60,STAT.A=5.0,ExtBa=13.70
25/09/2020,05:58:06,TEMP=15.5,BA=5.60,STAT.A=5.0,ExtBa=13.90
25/09/2020,06:09:28,TEMP=16.2,BA=5.60,STAT.B=5.0,ExtBa=14.10
25/09/2020,06:17:37,TEMP=17.0,BA=5.60,STAT.A=5.0,ExtBa=13.70
25/09/2020,06:21:05,TEMP=17.0,BA=5.60,STAT.A=5.0,ExtBa=13.90
25/09/2020,06:28:06,TEMP=17.3,BA=5.60,STAT.A=5.0,ExtBa=14.20
25/09/2020,06:36:06,TEMP=17.6,BA=5.60,STAT.A=5.0,ExtBa=14.40
25/09/2020,06:45:26,TEMP=17.9,BA=5.60,STAT.C=5.0,ExtBa=14.50
25/09/2020,06:58:22,TEMP=18.6,BA=5.60,STAT.A=5.0,ExtBa=14.10
25/09/2020,07:09:34,TEMP=18.7,BA=5.60,STAT.A=5.0,ExtBa=14.50
25/09/2020,07:25:49,TEMP=18.2,BA=5.60,STAT.A=5.0,ExtBa=13.10
25/09/2020,07:28:08,TEMP=18.3,BA=5.60,STAT.F,ExtBa=13.10
25/09/2020,07:43:06,TEMP=17.7,BA=5.60,STAT.D=5.0,ExtBa=13.40
25/09/2020,07:58:06,TEMP=18.3,BA=5.60,STAT.D=5.0,ExtBa=13.30
25/09/2020,08:13:06,TEMP=19.5,BA=5.60,STAT.D=5.0,ExtBa=14.60
25/09/2020,08:43:06,TEMP=21.7,BA=5.60,STAT.D=5.0,ExtBa=13.60
25/09/2020,08:58:06,TEMP=22.4,BA=5.60,STAT.D=5.0,ExtBa=14.10
25/09/2020,09:13:07,TEMP=23.0,BA=5.60,STAT.D=5.0,ExtBa=14.30
25/09/2020,09:28:08,TEMP=23.8,BA=5.60,STAT.F,ExtBa=14.10
25/09/2020,09:43:04,TEMP=24.0,BA=5.60,STAT.D=5.0,ExtBa=13.90
25/09/2020,09:58:07,TEMP=24.6,BA=5.60,STAT.D=6.0,ExtBa=13.90
25/09/2020,10:13:06,TEMP=24.8,BA=5.60,STAT.D=6.0,ExtBa=13.70
25/09/2020,10:28:08,TEMP=24.8,BA=5.60,STAT.F,ExtBa=13.60
25/09/2020,10:43:06,TEMP=24.7,BA=5.60,STAT.D=6.0,ExtBa=13.20
25/09/2020,10:58:07,TEMP=24.9,BA=5.60,STAT.D=6.0,ExtBa=13.20
25/09/2020,11:13:07,TEMP=25.5,BA=5.60,STAT.D=6.0,ExtBa=13.00
25/09/2020,11:28:07,TEMP=25.6,BA=5.60,STAT.F,ExtBa=12.80
25/09/2020,11:43:06,TEMP=25.3,BA=5.48,STAT.D=6.0,ExtBa=12.80
25/09/2020,11:58:06,TEMP=25.2,BA=5.60,STAT.D=6.0,ExtBa=12.90
25/09/2020,12:13:06,TEMP=25.6,BA=5.60,STAT.D=6.0,ExtBa=12.80
25/09/2020,12:28:07,TEMP=26.4,BA=5.60,STAT.F,ExtBa=12.80
25/09/2020,12:43:06,TEMP=26.4,BA=5.44,STAT.D=6.0,ExtBa=12.70
25/09/2020,12:58:06,TEMP=25.9,BA=5.52,STAT.D=6.0,ExtBa=12.70
25/09/2020,13:13:06,TEMP=25.9,BA=5.56,STAT.D=6.0,ExtBa=12.70
25/09/2020,13:28:07,TEMP=25.6,BA=5.60,STAT.F,ExtBa=12.70
25/09/2020,13:40:31,TEMP=25.5,BA=5.44,STAT.A=6.0,ExtBa=12.60
25/09/2020,13:46:41,TEMP=25.0,BA=5.44,STAT.A=6.0,ExtBa=12.70
25/09/2020,13:59:50,TEMP=24.4,BA=5.56,STAT.A=6.0,ExtBa=12.70
25/09/2020,14:10:48,TEMP=24.0,BA=5.60,STAT.C=6.0,ExtBa=12.70
25/09/2020,14:20:07,TEMP=23.8,BA=5.52,STAT.A=5.0,ExtBa=12.70
25/09/2020,14:28:08,TEMP=23.7,BA=5.52,STAT.A=5.0,ExtBa=12.60
25/09/2020,14:35:06,TEMP=23.6,BA=5.44,STAT.A=5.0,ExtBa=12.60
25/09/2020,14:41:17,TEMP=23.5,BA=5.48,STAT.A=5.0,ExtBa=12.60
25/09/2020,14:46:45,TEMP=23.5,BA=5.48,STAT.B=5.0,ExtBa=12.60
25/09/2020,14:58:08,TEMP=23.3,BA=5.48,STAT.A=5.0,ExtBa=12.60
25/09/2020,15:07:02,TEMP=23.2,BA=5.44,STAT.A=5.0,ExtBa=12.60
25/09/2020,15:14:15,TEMP=23.2,BA=5.44,STAT.A=5.0,ExtBa=12.60
25/09/2020,15:20:12,TEMP=23.2,BA=5.44,STAT.A=5.0,ExtBa=12.60
25/09/2020,15:25:14,TEMP=23.2,BA=5.44,STAT.A=5.0,ExtBa=12.60
25/09/2020,15:29:27,TEMP=23.1,BA=5.44,STAT.A=5.0,ExtBa=12.60